Showing default

HORACIO, 59098

Orbit data source: Space-Track

HORACIO, 59098 is a payload satellite owned by Satlantis (ES) in SSO that was launched on Mon, 04 Mar 2024 UTC via an FALCON 9 launch vehicle from the Air Force Western Test Range (AFWTR). Payload-class satellites include a variety of spacecraft equipped with specific instruments for various scientific and technological missions. These include communications satellites like Starlink; space stations such as the ISS; scientific satellites like the Hubble; Earth observation satellites from companies like Planet Labs, Umbra, and HawkEye 360; GPS; miniature CubeSats for education and research; and military/defense satellites.

Loading next visibility...
Identifier
59098, 2024-043A
Orbit
SSO
Country
Flag of ESES / SPN
Related business
Manufacturer
NanoAvionics
Mission
Operational Commercial Imaging
Bus & Motor
CUBESAT 16U M16P, Unknown motor
Mass
~20 kg wet, ~20 kg dry
Launch date (UTC)
2024-03-04 (2 years ago)
Launch vehicle
FALCON 9
Launch site
Air Force Western Test Range (AFWTR)
Object type
Payload
Rocket body
Debris
Shape & HBR
Box, 0.2 m
Radar Cross Section
0.100 m², Medium (>0.1 m² and < 1m²)

Expand to show TLE details & history
Last TLE update: 11 hours ago

TLE from 11 hours ago
0 HORACIO
1 59098U 24043A   26235.58957216  .00002833  00000-0  23998-3 0  9995
2 59098  97.8606   7.8412 0012074 144.8197 215.3824 14.98767529134763
Epoch: 2026-08-23T14:08Z
TLE epoch observation values (Epoch: 2026-08-23T14:08:59.034Z)
Latitude
-0.00011°
Longitude
-176.28821°
Altitude
580.597 km
Speed
7.566 km/s
True Right ascension
00h 31m 21s
True Declination
0° 00' 00"
Sunlit
Object was in full shadow at epoch
Visualization orbit readout
Latitude
Unknown
Longitude
Unknown
Altitude
Unknown
Speed
Unknown
Apparent Right ascension
Unknown
Apparent Declination
Unknown
Sunlit
N/A
Visualization observer readout
Local Sidereal Time
15:54:07
Azimuth
Unknown
Elevation
Unknown
Doppler factor
Unknown
Orbital elements
Apogee altitude
576.104 km
Perigee altitude
559.331 km
Semi-major axis
6,945.854 km
Eccentricity
0.00121
Inclination
97.8606°
RAAN
7.8412°
Arg. of periapsis
144.8197°
True anomaly
215.30239°
Mean anomaly
215.3824°
Eccentric anomaly
215.34238°
Mean motion
3.74934 °/min
Orbital period
96.02 mins
BSTAR
0.00023998
Loading maneuver chart data...
Computing Atmospheric mass density...

Documentation

Showing up to 5 results
|